sat.trackr.live / text

‹ back to catalog

STARLINK-34379

NORAD 64302 · 2025-123M

PAYLOAD ACTIVE UNKNOWN

§ Identity

Operator
Country
US
Launch date
2025-06-08
Launch site
AFWTR
Launch vehicle
Mass (kg)
RCS (m²)

Purposes: comms

External: N2YO · Heavens-Above · Gunter

§ Orbital elements

Epoch: 2026-09-20T09:53:30.403680Z

Period
93.32 min
Inclination
70.0027°
Eccentricity
0.0002955
Mean motion
15.43071770 rev/d
Perigee alt
435.0 km
Apogee alt
439.1 km
Semi-major
6,815.2 km
B*
2.5268e-4
RAAN
358.6298°
Arg perigee
234.7921°
Mean anomaly
125.2984°
Rev number
7,240

§ Raw data

STARLINK-343791 64302U 25123M   26263.41215745  .00011066  00000+0  25268-3 0  99952 64302  70.0027 358.6298 0002955 234.7921 125.2984 15.43071770 72402

JSON: /api/v1/satellites/64302 · /tle

For live sub-satellite position, see the globe view (requires WebGL).

§ Visibility from observer

Set your observer location to see the next 7 days of passes ≥ 10°. The values pass through the URL so the page stays shareable.

No JS? Fill the form by hand. The geolocation button needs JavaScript.